TimeEDT,TemperatureF,Dew PointF,Humidity,Sea Level PressureIn,VisibilityMPH,Wind Direction,Wind SpeedMPH,Gust SpeedMPH,PrecipitationIn,Events,Conditions,WindDirDegrees,DateUTC
12:54 AM,60.1,55.0,83,29.88,10.0,SW,16.1,-,N/A,,Overcast,230,2013-04-01 04:54:00
1:54 AM,59.0,55.0,87,29.88,8.0,SW,8.1,-,N/A,,Partly Cloudy,220,2013-04-01 05:54:00
2:54 AM,57.9,55.0,90,29.88,8.0,WNW,4.6,-,N/A,,Partly Cloudy,290,2013-04-01 06:54:00
5:01 AM,55.4,53.6,94,29.85,5.0,South,4.6,-,N/A,,Mostly Cloudy,170,2013-04-01 09:01:00
5:54 AM,57.0,54.0,89,29.84,8.0,WSW,8.1,-,N/A,,Mostly Cloudy,250,2013-04-01 09:54:00
6:54 AM,60.1,55.9,86,29.86,10.0,West,11.5,-,0.00,,Overcast,280,2013-04-01 10:54:00
7:54 AM,61.0,55.9,83,29.87,10.0,West,9.2,-,N/A,,Mostly Cloudy,270,2013-04-01 11:54:00
8:54 AM,61.0,57.0,87,29.87,10.0,Variable,4.6,-,N/A,,Overcast,0,2013-04-01 12:54:00
9:54 AM,64.0,57.9,80,29.88,10.0,WSW,10.4,19.6,N/A,,Partly Cloudy,250,2013-04-01 13:54:00
11:54 AM,59.0,53.1,81,29.88,10.0,NNW,12.7,-,0.00,,Overcast,340,2013-04-01 15:54:00
12:54 PM,60.1,54.0,80,29.88,10.0,Calm,Calm,-,0.01,,Overcast,0,2013-04-01 16:54:00
1:20 PM,60.8,53.6,77,29.87,10.0,Calm,Calm,-,N/A,,Overcast,0,2013-04-01 17:20:00
1:54 PM,63.0,53.1,70,29.86,10.0,Calm,Calm,-,N/A,,Overcast,0,2013-04-01 17:54:00
2:54 PM,64.0,57.0,78,29.83,10.0,Variable,4.6,-,N/A,,Mostly Cloudy,0,2013-04-01 18:54:00
3:54 PM,66.0,55.9,70,29.83,10.0,Calm,Calm,-,N/A,,Mostly Cloudy,0,2013-04-01 19:54:00
4:54 PM,68.0,55.0,63,29.82,10.0,NNE,3.5,-,N/A,,Mostly Cloudy,20,2013-04-01 20:54:00
5:54 PM,70.0,48.9,47,29.82,10.0,West,15.0,19.6,N/A,,Partly Cloudy,280,2013-04-01 21:54:00
6:54 PM,69.1,46.9,45,29.83,10.0,WNW,9.2,-,N/A,,Clear,290,2013-04-01 22:54:00
7:54 PM,61.0,55.9,83,29.85,10.0,South,6.9,-,N/A,,Clear,190,2013-04-01 23:54:00
8:54 PM,59.0,55.0,87,29.86,10.0,Calm,Calm,-,N/A,,Clear,0,2013-04-02 00:54:00
9:54 PM,57.0,53.1,87,29.88,7.0,Calm,Calm,-,N/A,,Clear,0,2013-04-02 01:54:00
10:54 PM,54.0,52.0,93,29.90,5.0,Calm,Calm,-,N/A,,Clear,0,2013-04-02 02:54:00
11:54 PM,55.0,53.1,93,29.92,8.0,Calm,Calm,-,N/A,,Clear,0,2013-04-02 03:54:00